Showing default

MICE-1, 66684

Orbit data source: Space-Track

MICE-1, 66684 is a Greek payload satellite in SSO that was launched on Fri, 28 Nov 2025 UTC via an FALCON 9 launch vehicle from the Air Force Western Test Range (AFWTR). Payload-class satellites include a variety of spacecraft equipped with specific instruments for various scientific and technological missions. These include communications satellites like Starlink; space stations such as the ISS; scientific satellites like the Hubble; Earth observation satellites from companies like Planet Labs, Umbra, and HawkEye 360; GPS; miniature CubeSats for education and research; and military/defense satellites.

Loading next visibility...
Identifier
66684, 2025-276U
Orbit
SSO
Country
Flag of GRGR / GREC
Related business
Manufacturer
PRISMA
Mission
Operational Commercial Imaging
Bus & Motor
CUBESAT 3U, Unknown motor
Mass
5 kg wet, 5 kg dry
Launch date (UTC)
2025-11-28 (6 months ago)
Launch vehicle
FALCON 9
Launch site
Air Force Western Test Range (AFWTR)
Object type
Payload
Rocket body
Debris
Shape & HBR
Box, 0.1 m
Radar Cross Section
0.080 m²

Expand to show TLE details & history
Last TLE update: 13 hours ago

TLE from 13 hours ago
0 MICE-1
1 66684U 25276U   26144.66346539  .00003071  00000-0  14998-3 0  9996
2 66684  97.4275 218.6863 0007092  81.2318 278.9719 15.18988658 26843
Epoch: 2026-05-24T15:55Z
TLE epoch observation values (Epoch: 2026-05-24T15:55:23.409Z)
Latitude
-0.00008°
Longitude
97.5764°
Altitude
511.226 km
Speed
7.609 km/s
True Right ascension
14h 34m 44s
True Declination
0° 00' 00"
Sunlit
Object was in full shadow at epoch
Visualization orbit readout
Latitude
Unknown
Longitude
Unknown
Altitude
Unknown
Speed
Unknown
Apparent Right ascension
Unknown
Apparent Declination
Unknown
Sunlit
N/A
Visualization observer readout
Local Sidereal Time
13:55:19
Azimuth
Unknown
Elevation
Unknown
Doppler factor
Unknown
Orbital elements
Apogee altitude
510.746 km
Perigee altitude
500.982 km
Semi-major axis
6,884.001 km
Eccentricity
0.00071
Inclination
97.4275°
RAAN
218.6863°
Arg. of periapsis
81.2318°
True anomaly
278.89161°
Mean anomaly
278.9719°
Eccentric anomaly
278.93176°
Mean motion
3.79998 °/min
Orbital period
94.74 mins
BSTAR
0.00014998
Loading maneuver chart data...
Computing Atmospheric mass density...
Loading historical data...
Loading historical data...
Loading historical data...
Loading historical data...
Loading historical data...
Loading historical data...
Loading historical data...

Documentation

Showing up to 5 results
|